Location: Honey Creek State Natural Area
(29.8555°N, 98.4942°W)
Time: 15:58:57
(UTC-06:00)

OTV 5 (USA 277) - Visible Passes

Search period start: 23 January 2018 00:00
Search period end: 02 February 2018 00:00
Orbit: 404 x 417 km, 43.0° (Epoch: 07 September)

Date Brightness Start Highest point End Pass type
(mag) Time Alt. Az. Time Alt. Az. Time Alt. Az.
23 Jan ? 18:21:53 10° WSW 18:25:15 70° NNW 18:28:36 10° NE visible
23 Jan ? 20:00:59 10° NW 20:02:01 13° NW 20:02:01 13° NW visible
24 Jan ? 19:09:13 10° WNW 19:11:44 19° NNW 19:13:29 14° NNE visible
26 Jan ? 19:05:59 10° NW 19:07:18 12° NNW 19:08:36 10° N visible
31 Jan ? 19:43:40 10° NNW 19:44:24 13° N 19:44:24 13° N visible
01 Feb ? 18:53:00 10° NNW 18:54:29 12° NNE 18:55:57 10° NE visible
